Change the Weather History Date:

Monday, January 8, 2007

  Actual Average Record
Temperature  
Mean Temperature 82 °F -  
Max Temperature 89 °F - - ()
Min Temperature 75 °F - - ()
Cooling Degree Days 17    
Growing Degree Days 32 (Base 50)    
Moisture  
Dew Point 77 °F    
Average Humidity 87    
Maximum Humidity 100    
Minimum Humidity 61    
Precipitation  
Precipitation 0.01 in - - ()
Sea Level Pressure  
Sea Level Pressure 29.81 in    
Wind  
Wind Speed 2 mph ()    
Max Wind Speed 8 mph    
Max Gust Speed -    
Visibility 12.0 miles    
Events Rain    
T = Trace of Precipitation, MM = Missing Value Source: Averaged Metar Reports

Daily Weather History Graph

Daily Weather History Graph

Search for Another Location

Airport or City:

Trip Planner

Search our weather history database for the weather conditions in past years. The results will help you decide how hot, cold, wet, or windy it might be!

Date:

Astronomy

Jan. 08, 2007 Rise Set
Actual Time 5:37 AM FJT 6:46 PM FJT
Civil Twilight 5:13 AM FJT 7:10 PM FJT
Nautical Twilight 4:45 AM FJT 7:39 PM FJT
Astronomical Twilight 4:15 AM FJT 8:08 PM FJT
Moon 10:06 PM FJT (1/8) 9:23 AM FJT (1/8)
Length of Visible Light 13h 57m
Length of Day
13h 09m
Waning Gibbous, 81% of the Moon is Illuminated
Jan 8
Waning Gibbous
Jan 12
Last Quarter
Jan 19
New
Jan 26
First Quarter
Feb 2
Full

Hourly Weather History & Observations

Time (FJT) Temp. Heat Index Dew Point Humidity Pressure Visibility Wind Dir Wind Speed Gust Speed Precip Events Conditions
12:00 AM 77 °F - 77 °F 100% 29.83 in 12 mi Calm Calm - -   Partly Cloudy
12:00 AM 77.0 °F - 77.0 °F 100% 29.83 in 24.9 mi Calm Calm - N/A   Mostly Cloudy
1:00 AM 78.8 °F - 77.0 °F 94% 29.80 in 24.9 mi Calm Calm - N/A   Mostly Cloudy
2:00 AM 78.8 °F - 77.0 °F 94% 29.80 in 24.9 mi Calm Calm - N/A   Mostly Cloudy
3:00 AM 77 °F - 76 °F 94% 29.79 in 12 mi SW 8.1 mph - -   Partly Cloudy
3:00 AM 77.0 °F - 75.2 °F 94% 29.77 in 24.9 mi SW 8.1 mph - N/A   Mostly Cloudy
4:00 AM 77.0 °F - 75.2 °F 94% 29.77 in 24.9 mi Calm Calm - N/A   Mostly Cloudy
5:00 AM 75.2 °F - 75.2 °F 100% 29.77 in 24.9 mi Calm Calm - N/A   Mostly Cloudy
6:00 AM 75 °F - 75 °F 100% 29.83 in 31 mi Calm Calm - -   Partly Cloudy
6:00 AM 75.2 °F - 75.2 °F 100% 29.83 in 31.1 mi Calm Calm - N/A   Mostly Cloudy
7:00 AM 77.0 °F - 77.0 °F 100% 29.83 in 31.1 mi Calm Calm - N/A   Mostly Cloudy
8:00 AM 78.8 °F - 77.0 °F 94% 29.86 in 31.1 mi Calm Calm - N/A   Mostly Cloudy
9:00 AM 82 °F - 77 °F 82% 29.87 in 31 mi Calm Calm - -   Partly Cloudy
9:00 AM 82.4 °F 90.9 °F 77.0 °F 84% 29.86 in 31.1 mi Calm Calm - N/A   Mostly Cloudy
10:00 AM 86.0 °F 95.1 °F 75.2 °F 70% 29.83 in 31.1 mi Calm Calm - N/A   Mostly Cloudy
11:00 AM 89.6 °F 102.2 °F 77.0 °F 66% 29.83 in 31.1 mi Calm Calm - N/A   Mostly Cloudy
12:00 PM 89 °F - 77 °F 61% 29.82 in 31 mi East 5.8 mph - -   Partly Cloudy
12:00 PM 89.6 °F 102.2 °F 77.0 °F 66% 29.80 in 31.1 mi East 5.8 mph - N/A   Mostly Cloudy
1:00 PM 87.8 °F 99.7 °F 77.0 °F 70% 29.80 in 31.1 mi ESE 5.8 mph - N/A   Mostly Cloudy
2:00 PM 89.6 °F 104.7 °F 78.8 °F 70% 29.77 in 31.1 mi South 6.9 mph - N/A   Scattered Clouds
3:00 PM 88 °F - 76 °F 61% 29.78 in 31 mi SSE 8.1 mph - -   Partly Cloudy
3:00 PM 87.8 °F 99.7 °F 77.0 °F 70% 29.77 in 31.1 mi SSE 8.1 mph - N/A   Scattered Clouds
4:00 PM 84.2 °F 94.1 °F 77.0 °F 79% 29.77 in 31.1 mi SSE 4.6 mph - N/A   Mostly Cloudy
5:00 PM 82.4 °F 90.9 °F 77.0 °F 84% 2.95 in 28.0 mi Calm Calm - N/A Rain Light Rain Showers
6:00 PM 82 °F - 79 °F 88% 29.80 in 12 mi Calm Calm - - Rain Light Rain Showers
6:00 PM 82.4 °F 92.4 °F 78.8 °F 89% 2.95 in 28.0 mi Calm Calm - N/A Rain Light Rain Showers
7:00 PM 80.6 °F 88.1 °F 78.8 °F 94% 2.95 in 24.9 mi Calm Calm - N/A Rain Light Rain Showers
8:00 PM 80.6 °F 88.1 °F 78.8 °F 94% 29.83 in 24.9 mi Calm Calm - N/A Rain Light Rain
9:00 PM 79 °F - 78 °F 96% 29.84 in 31 mi Calm Calm - - Rain Light Rain Showers
9:00 PM 78.8 °F - 78.8 °F 100% 29.83 in 31.1 mi Calm Calm - N/A   Mostly Cloudy
10:00 PM 78.8 °F - 78.8 °F 100% 29.83 in 31.1 mi Calm Calm - N/A   Mostly Cloudy
11:00 PM 78.8 °F - 77.0 °F 94% 29.83 in 31.1 mi Calm Calm - N/A   Mostly Cloudy